This is the latest recevied weather packets stored in our database for station/object N5SNT-2. If no packets are shown the sender has not sent any weather packets the latest 10 day(s).
| Time | Temp. | Humidity | Pressure | Rain* | Wind** | Luminosity | Snow |
|---|---|---|---|---|---|---|---|
| 1777591364 | 23.89° C | 77% | 1011 hPa | 0 mm | - | 164 W/m² | - |
| 1777591043 | 23.33° C | 78% | 1011 hPa | 0 mm | - | 216 W/m² | - |
| 1777590743 | 23.89° C | 77% | 1012 hPa | 0 mm | - | 127 W/m² | - |
| 1777590443 | 23.89° C | 77% | 1011 hPa | 0 mm | - | 129 W/m² | - |
| 1777590143 | 23.89° C | 76% | 1011 hPa | 0 mm | - | 176 W/m² | - |
| 1777589843 | 23.89° C | 75% | 1011 hPa | 0 mm | - | 311 W/m² | - |
| 1777589544 | 23.89° C | 75% | 1011 hPa | 0 mm | - | 317 W/m² | - |
| 1777589244 | 23.89° C | 78% | 1011 hPa | 0 mm | - | 209 W/m² | - |
| 1777588944 | 23.89° C | 79% | 1011 hPa | 0 mm | - | 167 W/m² | - |
| 1777588643 | 23.89° C | 77% | 1011 hPa | 0 mm | - | 166 W/m² | - |
| 1777588343 | 23.89° C | 78% | 1011 hPa | 0 mm | - | 172 W/m² | - |
| 1777588043 | 23.89° C | 78% | 1011 hPa | 0 mm | - | 179 W/m² | - |
| 1777587744 | 23.89° C | 77% | 1011 hPa | 0 mm | - | 221 W/m² | - |
| 1777587443 | 23.89° C | 77% | 1011 hPa | 0 mm | - | 272 W/m² | - |
| 1777587143 | 23.89° C | 77% | 1011 hPa | 0 mm | - | 381 W/m² | - |
| 1777586843 | 23.89° C | 78% | 1011 hPa | 0 mm | - | 392 W/m² | - |
| 1777586543 | 23.33° C | 78% | 1012 hPa | 0 mm | - | 436 W/m² | - |
| 1777586244 | 23.89° C | 79% | 1012 hPa | 0 mm | - | 263 W/m² | - |
| 1777585943 | 23.89° C | 77% | 1012 hPa | 0 mm | - | 223 W/m² | - |
| 1777585643 | 23.89° C | 76% | 1012 hPa | 0 mm | - | 351 W/m² | - |
| 1777585343 | 23.89° C | 76% | 1012 hPa | 0 mm | - | 548 W/m² | - |
| 1777585043 | 23.33° C | 77% | 1012 hPa | 0 mm | - | 573 W/m² | - |
| 1777584745 | 23.89° C | 77% | 1012 hPa | 0 mm | - | 654 W/m² | - |
| 1777584444 | 23.33° C | 78% | 1012 hPa | 0 mm | - | 700 W/m² | - |
| 1777584145 | 22.78° C | 80% | 1012 hPa | 0 mm | - | 713 W/m² | - |
* Rain latest hour (hover to see other rain measurements)
** Current wind speed in m/s (hover to see current wind gust speed)